Location: York
(31.8935°S, 116.7682°E)
Time: 03:40:33
(UTC+08:00)

Vanguard 1 - Visible Passes

Search period start: 14 June 2021 00:00
Search period end: 24 June 2021 00:00
Orbit: 650 x 3832 km, 34.2° (Epoch: 12 June)

Date Brightness Start Highest point End Pass type
(mag) Time Alt. Az. Time Alt. Az. Time Alt. Az.
14 Jun 13.8 18:45:59 10° W 19:01:56 38° NW 19:22:10 10° NNE visible
14 Jun 14.6 21:26:27 10° NW 21:27:08 10° NW 21:27:51 10° NW visible
15 Jun 14.1 19:08:15 10° W 19:23:14 30° NW 19:41:29 10° NNE visible
16 Jun 13.4 17:05:16 10° WSW 17:19:12 53° NNW 17:40:43 10° NE visible
16 Jun 14.4 19:31:21 10° W 19:44:33 22° NW 19:59:57 10° N visible
17 Jun 13.7 17:26:43 10° W 17:40:34 43° NNW 18:01:04 10° NNE visible
17 Jun 14.5 19:56:09 10° WNW 20:05:56 15° NW 20:16:47 10° NNW visible
18 Jun 14.0 17:48:28 10° W 18:01:58 35° NW 18:20:54 10° NNE visible
19 Jun 14.3 18:10:46 10° W 18:23:22 27° NW 18:40:06 10° N visible
20 Jun 14.5 18:33:59 10° WNW 18:44:50 19° NW 18:58:18 10° N visible
21 Jun 14.7 18:59:27 10° WNW 19:06:25 13° NW 19:14:18 10° NNW visible
23 Jun 14.5 17:14:04 10° WNW 17:24:08 23° NW 17:38:01 10° N visible
